Voltar ao catálogo

ARIANE 1 DEB

AtivoHEO
NORAD 26681·DEBRIS·🇫🇷 France

Lançado Mar 5, 1984 de Guiana Space Centre

Loading…

Próximas Passagens (próximas 24 horas)

TLE

AtualizadoSource: Space-Track

Época: Sep 14, 2026, 09:39 UTC

1 26681U 84023G   26257.40216102  .00000156  00000-0  37639-2 0  9990
2 26681   8.8963  37.3641 6868938 136.4934 306.4063  2.60255953263023

Acompanhe ARIANE 1 DEB em tempo real com AllMySat

Download on the App Store